Tracking 35237 objects as of 6-Sep-2026
HD Live streaming from Space Station
objects crossing your sky now

COSMOS 1627

Track COSMOS 1627 now!
10-day predictions
COSMOS 1627 is classified as:


NORAD ID: 15505
Int'l Code: 1985-011A
Launch date: February 1, 1985
Source: Commonwealth of Independent States (former USSR) (CIS)
Launch site: PLESETSK MISSILE AND SPACE COMPLEX (PKMTR)
Your satellite tracking list
Your tracking list is empty




NASA's NSSDC Master Catalog

Two Line Element Set (TLE):
1 15505U 85011A   26249.25479022  .00000027  00000-0  12106-4 0  9998
2 15505  82.9257 347.0110 0043152 121.9097 267.7331 13.74606966 86248
Source of the keplerian elements: AFSPC